• In Germany
  • List of Countries
  • For 7 days
  • Water Temperature
  • Satellite Maps
  • Weather Map
  • Weather Widgets
  • user-avatar
    Login

    Hourly Weather Grebcovo

    Today, 18 September, Tuesday

    Time Temperature Precipitation Wind Pressure Humidity
    00:00 +16°C° 0 mm 3 mps 764 mmHg 45%
    01:00 +14°C° 0 mm 3 mps 764 mmHg 48%
    02:00 +14°C° 0 mm 3 mps 764 mmHg 50%
    03:00 +14°C° 0 mm 2 mps 764 mmHg 53%
    04:00 +13°C° 0 mm 2 mps 764 mmHg 55%
    05:00 +12°C° 0 mm 3 mps 764 mmHg 57%
    06:00 +12°C° 0 mm 3 mps 765 mmHg 59%
    07:00 +14°C° 0 mm 3 mps 765 mmHg 55%
    08:00 +16°C° 0 mm 3 mps 765 mmHg 50%
    09:00 +18°C° 0 mm 4 mps 765 mmHg 45%
    10:00 +19°C° 0 mm 4 mps 765 mmHg 41%
    11:00 +21°C° 0 mm 4 mps 765 mmHg 37%
    12:00 +22°C° 0 mm 4 mps 765 mmHg 34%
    13:00 +23°C° 0 mm 4 mps 764 mmHg 33%
    14:00 +23°C° 0 mm 4 mps 764 mmHg 32%
    15:00 +25°C° 0 mm 4 mps 764 mmHg 31%
    16:00 +23°C° 0 mm 4 mps 764 mmHg 34%
    17:00 +22°C° 0 mm 3 mps 764 mmHg 37%
    18:00 +22°C° 0 mm 3 mps 763 mmHg 40%
    19:00 +21°C° 0 mm 3 mps 764 mmHg 43%
    20:00 +20°C° 0 mm 3 mps 764 mmHg 45%
    21:00 +19°C° 0 mm 3 mps 764 mmHg 48%
    22:00 +18°C° 0 mm 3 mps 764 mmHg 50%
    23:00 +18°C° 0 mm 3 mps 764 mmHg 51%

    Tomorrow, 19 September, Wednesday

    Time Temperature Precipitation Wind Pressure Humidity
    00:00 +18°C° 0 mm 2 mps 764 mmHg 53%
    01:00 +17°C° 0 mm 3 mps 764 mmHg 54%
    02:00 +17°C° 0 mm 3 mps 764 mmHg 55%
    03:00 +17°C° 0 mm 3 mps 764 mmHg 56%
    04:00 +16°C° 0 mm 3 mps 764 mmHg 59%
    05:00 +16°C° 0 mm 3 mps 764 mmHg 61%
    06:00 +16°C° 0 mm 3 mps 764 mmHg 63%
    07:00 +18°C° 0 mm 3 mps 764 mmHg 61%
    08:00 +19°C° 0 mm 3 mps 765 mmHg 58%
    09:00 +21°C° 0 mm 4 mps 765 mmHg 55%
    10:00 +22°C° 0 mm 4 mps 765 mmHg 50%
    11:00 +23°C° 0 mm 4 mps 765 mmHg 45%
    12:00 +26°C° 0 mm 5 mps 764 mmHg 39%
    13:00 +26°C° 0 mm 5 mps 764 mmHg 38%
    14:00 +27°C° 0 mm 5 mps 764 mmHg 36%
    15:00 +27°C° 0 mm 4 mps 764 mmHg 34%
    16:00 +26°C° 0 mm 4 mps 764 mmHg 36%
    17:00 +26°C° 0 mm 3 mps 764 mmHg 39%
    18:00 +25°C° 0 mm 2 mps 764 mmHg 41%
    19:00 +24°C° 0 mm 2 mps 764 mmHg 44%
    20:00 +23°C° 0 mm 2 mps 765 mmHg 46%
    21:00 +21°C° 0 mm 1 mps 765 mmHg 49%
    22:00 +21°C° 0 mm 1 mps 765 mmHg 51%
    23:00 +21°C° 0 mm 1 mps 765 mmHg 52%

    Day after tomorrow, 20 September, Thursday

    Time Temperature Precipitation Wind Pressure Humidity
    00:00 +20°C° 0 mm 1 mps 765 mmHg 54%
    01:00 +20°C° 0 mm 1 mps 765 mmHg 55%
    02:00 +19°C° 0 mm 1 mps 765 mmHg 56%
    03:00 +19°C° 0 mm 1 mps 765 mmHg 57%
    04:00 +19°C° 0 mm 1 mps 765 mmHg 58%
    05:00 +19°C° 0 mm 1 mps 765 mmHg 60%
    06:00 +18°C° 0 mm 1 mps 765 mmHg 61%
    07:00 +20°C° 0 mm 1 mps 765 mmHg 56%
    08:00 +22°C° 0 mm 1 mps 765 mmHg 52%
    09:00 +24°C° 0 mm 1 mps 765 mmHg 47%
    10:00 +25°C° 0 mm 2 mps 765 mmHg 44%
    11:00 +26°C° 0 mm 2 mps 765 mmHg 40%
    12:00 +28°C° 0 mm 2 mps 764 mmHg 37%
    13:00 +28°C° 0 mm 2 mps 764 mmHg 34%
    14:00 +29°C° 0 mm 2 mps 764 mmHg 32%
    15:00 +30°C° 0 mm 2 mps 763 mmHg 29%
    16:00 +29°C° 0 mm 2 mps 763 mmHg 31%
    17:00 +28°C° 0 mm 2 mps 763 mmHg 33%
    18:00 +27°C° 0 mm 1 mps 763 mmHg 35%
    19:00 +26°C° 0 mm 1 mps 763 mmHg 37%
    20:00 +25°C° 0 mm 1 mps 763 mmHg 40%
    21:00 +24°C° 0 mm 1 mps 763 mmHg 42%
    22:00 +23°C° 0 mm 1 mps 763 mmHg 43%
    23:00 +23°C° 0 mm 1 mps 763 mmHg 45%

    21 September, Friday

    Time Temperature Precipitation Wind Pressure Humidity
    00:00 +22°C° 0 mm 1 mps 763 mmHg 47%
    01:00 +22°C° 0 mm 1 mps 763 mmHg 49%
    02:00 +21°C° 0 mm 1 mps 763 mmHg 51%
    03:00 +20°C° 0 mm 2 mps 763 mmHg 53%
    04:00 +20°C° 0 mm 2 mps 763 mmHg 56%
    05:00 +19°C° 0 mm 2 mps 763 mmHg 58%
    06:00 +19°C° 0 mm 2 mps 763 mmHg 61%
    07:00 +21°C° 0 mm 2 mps 763 mmHg 58%
    08:00 +23°C° 0 mm 2 mps 763 mmHg 54%
    09:00 +25°C° 0 mm 2 mps 763 mmHg 51%
    10:00 +26°C° 0 mm 3 mps 763 mmHg 47%
    11:00 +28°C° 0 mm 3 mps 763 mmHg 43%
    12:00 +29°C° 0 mm 3 mps 763 mmHg 39%
    13:00 +29°C° 0 mm 3 mps 762 mmHg 37%
    14:00 +30°C° 0 mm 3 mps 762 mmHg 35%
    15:00 +30°C° 0 mm 3 mps 762 mmHg 32%
    16:00 +30°C° 0 mm 3 mps 762 mmHg 35%
    17:00 +29°C° 0 mm 2 mps 762 mmHg 37%
    18:00 +28°C° 0 mm 2 mps 762 mmHg 39%
    19:00 +26°C° 0 mm 3 mps 762 mmHg 40%
    20:00 +25°C° 0 mm 3 mps 762 mmHg 42%
    21:00 +24°C° 0 mm 3 mps 762 mmHg 43%
    22:00 +22°C° 0 mm 3 mps 763 mmHg 45%
    23:00 +21°C° 0 mm 3 mps 763 mmHg 47%

    22 September, Saturday

    Time Temperature Precipitation Wind Pressure Humidity
    00:00 +21°C° 0 mm 3 mps 763 mmHg 48%
    01:00 +20°C° 0 mm 3 mps 763 mmHg 51%
    02:00 +20°C° 0 mm 3 mps 763 mmHg 53%
    03:00 +19°C° 0 mm 3 mps 763 mmHg 55%
    04:00 +18°C° 0 mm 3 mps 763 mmHg 58%
    05:00 +18°C° 0 mm 3 mps 763 mmHg 61%
    06:00 +17°C° 0 mm 3 mps 763 mmHg 63%
    07:00 +19°C° 0 mm 3 mps 763 mmHg 59%
    08:00 +21°C° 0 mm 4 mps 763 mmHg 54%
    09:00 +22°C° 0 mm 4 mps 763 mmHg 50%
    10:00 +25°C° 0 mm 4 mps 763 mmHg 45%
    11:00 +26°C° 0 mm 4 mps 762 mmHg 40%
    12:00 +28°C° 0 mm 4 mps 762 mmHg 34%
    13:00 +29°C° 0 mm 4 mps 762 mmHg 33%
    14:00 +29°C° 0 mm 4 mps 761 mmHg 31%
    15:00 +30°C° 0 mm 4 mps 761 mmHg 29%
    16:00 +28°C° 0 mm 4 mps 761 mmHg 32%
    17:00 +27°C° 0 mm 3 mps 761 mmHg 34%
    18:00 +26°C° 0 mm 3 mps 761 mmHg 37%
    19:00 +25°C° 0 mm 3 mps 761 mmHg 40%
    20:00 +23°C° 0 mm 4 mps 761 mmHg 43%
    21:00 +22°C° 0 mm 4 mps 761 mmHg 46%
    22:00 +21°C° 0 mm 4 mps 761 mmHg 48%
    23:00 +21°C° 0 mm 4 mps 760 mmHg 50%

    23 September, Sunday

    Time Temperature Precipitation Wind Pressure Humidity
    00:00 +20°C° 0 mm 4 mps 760 mmHg 52%
    01:00 +20°C° 0 mm 4 mps 760 mmHg 54%
    02:00 +19°C° 0 mm 4 mps 760 mmHg 55%
    03:00 +19°C° 0 mm 4 mps 760 mmHg 56%
    04:00 +19°C° 0 mm 4 mps 760 mmHg 58%
    05:00 +18°C° 0 mm 4 mps 760 mmHg 59%
    06:00 +18°C° 0 mm 4 mps 760 mmHg 60%
    07:00 +19°C° 0 mm 4 mps 759 mmHg 56%
    08:00 +21°C° 0 mm 5 mps 759 mmHg 52%
    09:00 +22°C° 0 mm 5 mps 759 mmHg 48%
    10:00 +24°C° 0 mm 6 mps 759 mmHg 44%
    11:00 +26°C° 0 mm 6 mps 759 mmHg 40%
    12:00 +28°C° 0 mm 6 mps 758 mmHg 36%
    13:00 +28°C° 0 mm 6 mps 758 mmHg 35%
    14:00 +29°C° 0 mm 6 mps 757 mmHg 34%
    15:00 +29°C° 0 mm 6 mps 757 mmHg 33%
    16:00 +28°C° 0 mm 5 mps 757 mmHg 35%
    17:00 +28°C° 0 mm 4 mps 757 mmHg 38%
    18:00 +27°C° 0 mm 4 mps 757 mmHg 40%
    19:00 +26°C° 0.3 mm 4 mps 756 mmHg 42%
    20:00 +23°C° 0.3 mm 4 mps 756 mmHg 44%
    21:00 +22°C° 0.3 mm 5 mps 756 mmHg 46%
    22:00 +22°C° 0.2 mm 4 mps 756 mmHg 48%
    23:00 +21°C° 0.2 mm 4 mps 756 mmHg 51%
    Show more